Change the Weather History Date:

Thursday, June 13, 2013

  Actual Average Record
Temperature  
Mean Temperature 63 °F 65 °F  
Max Temperature 76 °F 77 °F 98 °F (1936)
Min Temperature 50 °F 53 °F 37 °F (1942)
Degree Days  
Heating Degree Days 2 3  
Month to date heating degree days 67 50  
Since 1 June heating degree days 67 50  
Since 1 July heating degree days 8247 7934  
Cooling Degree Days 0 3  
Month to date cooling degree days 12 24  
Year to date cooling degree days 27 40  
Since 1 June cooling degree days 12 24  
Growing Degree Days 12 (Base 50)    
Moisture  
Dew Point 54 °F    
Average Humidity 73    
Maximum Humidity 100    
Minimum Humidity 46    
Precipitation  
Precipitation 0.00 in 0.12 in 1.48 in (1914)
Month to date precipitation 1.11 1.60  
Year to date precipitation 8.79 7.62  
Sea Level Pressure  
Sea Level Pressure 30.04 in    
Wind  
Wind Speed 10 mph (SE)    
Max Wind Speed 21 mph    
Max Gust Speed 28 mph    
Visibility 10 miles    
Events      
T = Trace of Precipitation, MM = Missing Value Source: NWS Daily Summary

Daily Weather History Graph

Daily Weather History Graph

Search for Another Location

Airport or City:

Trip Planner

Search our weather history database for the weather conditions in past years. The results will help you decide how hot, cold, wet, or windy it might be!

Date:

Astronomy

Jun. 13, 2013 Rise Set
Actual Time 5:52 AM CDT 9:31 PM CDT
Civil Twilight 5:14 AM CDT 10:09 PM CDT
Nautical Twilight 4:23 AM CDT 11:00 PM CDT
Astronomical Twilight 3:15 AM CDT 12:08 AM CDT
Moon 10:42 AM CDT (6/13) No Moon Set
Length of Visible Light 16h 55m
Length of Day
15h 39m
Waxing Crescent, 22% of the Moon is Illuminated
Jun 13
Waxing Crescent
Jun 16
First Quarter
Jun 23
Full
Jun 29
Last Quarter
Jul 8
New

Hourly Weather History & Observations

Time (CDT) Temp. Dew Point Humidity Pressure Visibility Wind Dir Wind Speed Gust Speed Precip Events Conditions
12:52 AM 55.9 °F 52.0 °F 87% 30.15 in 10.0 mi Calm Calm - N/A   Clear
1:52 AM 53.1 °F 52.0 °F 96% 30.15 in 10.0 mi Calm Calm - N/A   Clear
2:52 AM 54.0 °F 53.1 °F 97% 30.15 in 10.0 mi Calm Calm - N/A   Scattered Clouds
3:52 AM 57.9 °F 54.0 °F 87% 30.12 in 10.0 mi WSW 4.6 mph - N/A   Clear
4:52 AM 54.0 °F 53.1 °F 97% 30.12 in 9.0 mi Calm Calm - N/A   Clear
5:52 AM 50.0 °F 48.9 °F 96% 30.14 in 7.0 mi Calm Calm - N/A   Clear
6:52 AM 55.0 °F 53.1 °F 93% 30.12 in 8.0 mi NE 3.5 mph - N/A   Clear
7:52 AM 60.1 °F 55.0 °F 83% 30.12 in 10.0 mi Calm Calm - N/A   Clear
8:52 AM 63.0 °F 52.0 °F 67% 30.11 in 10.0 mi SSE 8.1 mph - N/A   Clear
9:52 AM 64.9 °F 54.0 °F 68% 30.10 in 10.0 mi SSE 11.5 mph - N/A   Clear
10:52 AM 69.1 °F 52.0 °F 54% 30.08 in 10.0 mi SSE 12.7 mph 20.7 mph N/A   Clear
11:52 AM 71.1 °F 52.0 °F 51% 30.07 in 10.0 mi SSE 13.8 mph - N/A   Clear
12:52 PM 72.0 °F 53.1 °F 51% 30.06 in 10.0 mi SSE 12.7 mph - N/A   Clear
1:52 PM 73.9 °F 53.1 °F 48% 30.05 in 10.0 mi SSE 13.8 mph - N/A   Clear
2:52 PM 73.9 °F 53.1 °F 48% 30.02 in 10.0 mi SSE 15.0 mph - N/A   Clear
3:52 PM 75.0 °F 54.0 °F 48% 29.99 in 10.0 mi SSE 15.0 mph - N/A   Clear
4:52 PM 75.0 °F 55.0 °F 50% 29.97 in 10.0 mi SSE 16.1 mph - N/A   Clear
5:52 PM 75.9 °F 55.9 °F 50% 29.95 in 10.0 mi SE 13.8 mph - N/A   Scattered Clouds
6:52 PM 72.0 °F 55.0 °F 55% 29.94 in 10.0 mi SE 17.3 mph - N/A   Overcast
7:52 PM 71.1 °F 55.9 °F 59% 29.93 in 10.0 mi SE 13.8 mph - N/A   Clear
8:52 PM 69.1 °F 55.9 °F 63% 29.94 in 10.0 mi ESE 9.2 mph - N/A   Overcast
9:52 PM 66.9 °F 55.9 °F 68% 29.96 in 10.0 mi ESE 8.1 mph - N/A   Overcast
10:52 PM 66.9 °F 55.0 °F 66% 29.90 in 10.0 mi ESE 17.3 mph - N/A   Scattered Clouds
11:52 PM 66.9 °F 54.0 °F 63% 29.87 in 10.0 mi SSE 15.0 mph - N/A   Clear